Morris, MN

12:08 PM CDT on June 28, 2017 (GMT -0500)
Morris Municipal

Weather History for KMOX - March, 2014

Change the Weather History Date:

Wednesday, March 12, 2014

  Actual Average Record
Temperature  
Mean Temperature 26 °F -  
Max Temperature 30 °F 30 °F 69 °F (2016)
Min Temperature 21 °F 13 °F -13 °F (2009)
Degree Days  
Heating Degree Days 40    
Moisture  
Dew Point 18 °F    
Average Humidity 73    
Maximum Humidity 86    
Minimum Humidity 54    
Precipitation  
Precipitation 0.00 in - - ()
Sea Level Pressure  
Sea Level Pressure 30.07 in    
Wind  
Wind Speed 8 mph (SW)    
Max Wind Speed 16 mph    
Max Gust Speed 17 mph    
Visibility 10 miles    
Events      
Averages and records for this station are not official NWS values.
T = Trace of Precipitation, MM = Missing Value Source: NWS Daily Summary

Daily Weather History Graph

Daily Weather History Graph

Search for Another Location

Airport or City:

Trip Planner

Search our weather history database for the weather conditions in past years. The results will help you decide how hot, cold, wet, or windy it might be!

Date:

Astronomy

Mar. 12, 2014 Rise Set
Actual Time 7:42 AM CDT 7:25 PM CDT
Civil Twilight 7:12 AM CDT 7:55 PM CDT
Nautical Twilight 6:38 AM CDT 8:29 PM CDT
Astronomical Twilight 6:03 AM CDT 9:04 PM CDT
Moon 3:49 PM CDT (3/12) 5:23 AM CDT (3/12)
Length of Visible Light 12h 42m
Length of Day
11h 43m
Waxing Gibbous, 85% of the Moon is Illuminated
Mar 12
Waxing Gibbous
Mar 16
Full
Mar 23
Last Quarter
Mar 30
New
Apr 7
First Quarter

Hourly Weather History & Observations

Time (CDT) Temp. Windchill Dew Point Humidity Pressure Visibility Wind Dir Wind Speed Gust Speed Precip Events Conditions
12:16 AM 24.8 °F 15.3 °F 17.6 °F 74% 30.13 in 10.0 mi NNW 9.2 mph - N/A   Clear
12:36 AM 24.8 °F 14.6 °F 17.6 °F 74% 30.12 in 10.0 mi North 10.4 mph - N/A   Clear
12:56 AM 23.0 °F 11.1 °F 17.6 °F 80% 30.12 in 10.0 mi NNW 12.7 mph - N/A   Clear
1:16 AM 23.0 °F 11.7 °F 17.6 °F 80% 30.12 in 10.0 mi NNW 11.5 mph - N/A   Clear
1:36 AM 21.2 °F 10.1 °F 17.6 °F 86% 30.12 in 10.0 mi NW 10.4 mph - N/A   Clear
1:56 AM 21.2 °F 10.9 °F 15.8 °F 80% 30.12 in 10.0 mi NNW 9.2 mph - N/A   Clear
2:16 AM 21.2 °F 10.1 °F 15.8 °F 80% 30.13 in 10.0 mi NNW 10.4 mph - N/A   Clear
2:36 AM 21.2 °F 11.7 °F 15.8 °F 80% 30.13 in 10.0 mi NNW 8.1 mph - N/A   Scattered Clouds
2:56 AM 21.2 °F 10.9 °F 15.8 °F 80% 30.12 in 10.0 mi NNW 9.2 mph - N/A   Mostly Cloudy
3:16 AM 21.2 °F 10.9 °F 15.8 °F 80% 30.12 in 10.0 mi NNW 9.2 mph - N/A   Mostly Cloudy
3:36 AM 21.2 °F 11.7 °F 15.8 °F 80% 30.11 in 10.0 mi NNW 8.1 mph - N/A   Mostly Cloudy
3:56 AM 21.2 °F 10.9 °F 15.8 °F 80% 30.11 in 10.0 mi NNW 9.2 mph - N/A   Overcast
4:16 AM 21.2 °F 10.1 °F 12.2 °F 68% 30.11 in 10.0 mi North 10.4 mph - N/A   Overcast
4:36 AM 21.2 °F 10.9 °F 14.0 °F 74% 30.10 in 10.0 mi North 9.2 mph - N/A   Overcast
4:56 AM 21.2 °F 10.9 °F 14.0 °F 74% 30.11 in 10.0 mi NNW 9.2 mph - N/A   Overcast
5:16 AM 21.2 °F 12.6 °F 12.2 °F 68% 30.11 in 10.0 mi NNW 6.9 mph - N/A   Overcast
5:36 AM 21.2 °F 13.6 °F 14.0 °F 74% 30.12 in 10.0 mi North 5.8 mph - N/A   Overcast
5:56 AM 21.2 °F 13.6 °F 14.0 °F 74% 30.12 in 10.0 mi North 5.8 mph - N/A   Overcast
6:16 AM 21.2 °F 11.7 °F 12.2 °F 68% 30.12 in 10.0 mi North 8.1 mph - N/A   Overcast
6:36 AM 21.2 °F 11.7 °F 14.0 °F 74% 30.12 in 10.0 mi NNW 8.1 mph - N/A   Overcast
6:56 AM 21.2 °F 13.6 °F 12.2 °F 68% 30.13 in 10.0 mi NNW 5.8 mph - N/A   Overcast
7:16 AM 21.2 °F 13.6 °F 12.2 °F 68% 30.13 in 10.0 mi North 5.8 mph - N/A   Overcast
7:36 AM 21.2 °F 13.6 °F 12.2 °F 68% 30.13 in 10.0 mi North 5.8 mph - N/A   Overcast
7:56 AM 21.2 °F 16.4 °F 12.2 °F 68% 30.13 in 10.0 mi NNW 3.5 mph - N/A   Overcast
8:16 AM 21.2 °F 16.4 °F 12.2 °F 68% 30.12 in 10.0 mi NNW 3.5 mph - N/A   Overcast
8:36 AM 21.2 °F 14.9 °F 12.2 °F 68% 30.13 in 10.0 mi NNE 4.6 mph - N/A   Mostly Cloudy
8:56 AM 21.2 °F 16.4 °F 12.2 °F 68% 30.13 in 10.0 mi North 3.5 mph - N/A   Mostly Cloudy
9:16 AM 21.2 °F - 12.2 °F 68% 30.13 in 10.0 mi Calm Calm - N/A   Scattered Clouds
9:36 AM 21.2 °F - 12.2 °F 68% 30.12 in 10.0 mi Calm Calm - N/A   Scattered Clouds
9:56 AM 23.0 °F - 10.4 °F 59% 30.11 in 10.0 mi Calm Calm - N/A   Clear
10:16 AM 24.8 °F - 12.2 °F 59% 30.13 in 10.0 mi Calm Calm - N/A   Clear
10:36 AM 24.8 °F - 10.4 °F 54% 30.13 in 10.0 mi Calm Calm - N/A   Scattered Clouds
10:56 AM 24.8 °F - 10.4 °F 54% 30.13 in 10.0 mi Calm Calm - N/A   Mostly Cloudy
11:16 AM 24.8 °F - 10.4 °F 54% 30.12 in 10.0 mi Calm Calm - N/A   Mostly Cloudy
11:36 AM 24.8 °F - 10.4 °F 54% 30.12 in 10.0 mi Calm Calm - N/A   Scattered Clouds
11:56 AM 24.8 °F - 10.4 °F 54% 30.13 in 10.0 mi Calm Calm - N/A   Clear
12:16 PM 24.8 °F - 12.2 °F 59% 30.13 in 10.0 mi Calm Calm - N/A   Scattered Clouds
12:36 PM 24.8 °F - 10.4 °F 54% 30.12 in 10.0 mi Calm Calm - N/A   Scattered Clouds
12:56 PM 26.6 °F - 12.2 °F 55% 30.12 in 10.0 mi Calm Calm - N/A   Scattered Clouds
1:16 PM 26.6 °F - 12.2 °F 55% 30.12 in 10.0 mi Calm Calm - N/A   Scattered Clouds
1:36 PM 26.6 °F 20.0 °F 15.8 °F 64% 30.11 in 10.0 mi South 5.8 mph - N/A   Clear
1:56 PM 28.4 °F 23.3 °F 15.8 °F 59% 30.10 in 10.0 mi SSW 4.6 mph - N/A   Clear
2:16 PM 28.4 °F 23.3 °F 15.8 °F 59% 30.09 in 10.0 mi South 4.6 mph - N/A   Clear
2:36 PM 28.4 °F 21.2 °F 17.6 °F 64% 30.07 in 10.0 mi SW 6.9 mph - N/A   Clear
2:56 PM 28.4 °F 20.4 °F 19.4 °F 69% 30.06 in 10.0 mi SSW 8.1 mph - N/A   Clear
3:16 PM 30.2 °F 24.3 °F 19.4 °F 64% 30.06 in 10.0 mi SSW 5.8 mph - N/A   Clear
3:36 PM 30.2 °F 24.3 °F 19.4 °F 64% 30.05 in 10.0 mi South 5.8 mph - N/A   Clear
3:56 PM 30.2 °F 23.4 °F 21.2 °F 69% 30.05 in 10.0 mi South 6.9 mph - N/A   Clear
4:16 PM 30.2 °F 24.3 °F 21.2 °F 69% 30.04 in 10.0 mi SSW 5.8 mph - N/A   Clear
4:36 PM 30.2 °F 21.9 °F 21.2 °F 69% 30.04 in 10.0 mi South 9.2 mph - N/A   Clear
4:56 PM 30.2 °F 23.4 °F 24.8 °F 80% 30.03 in 10.0 mi South 6.9 mph - N/A   Clear
5:16 PM 30.2 °F 23.4 °F 24.8 °F 80% 30.03 in 10.0 mi SW 6.9 mph - N/A   Clear
5:36 PM 30.2 °F 22.6 °F 24.8 °F 80% 30.03 in 10.0 mi South 8.1 mph - N/A   Clear
5:56 PM 30.2 °F 22.6 °F 24.8 °F 80% 30.03 in 10.0 mi South 8.1 mph - N/A   Clear
6:16 PM 30.2 °F 22.6 °F 24.8 °F 80% 30.03 in 10.0 mi South 8.1 mph - N/A   Clear
6:36 PM 30.2 °F 22.6 °F 24.8 °F 80% 30.02 in 10.0 mi South 8.1 mph - N/A   Scattered Clouds
6:56 PM 30.2 °F 21.9 °F 24.8 °F 80% 30.02 in 10.0 mi SSE 9.2 mph - N/A   Mostly Cloudy
7:16 PM 30.2 °F 21.9 °F 24.8 °F 80% 30.01 in 10.0 mi SSE 9.2 mph - N/A   Mostly Cloudy
7:36 PM 30.2 °F 20.8 °F 24.8 °F 80% 30.00 in 10.0 mi SE 11.5 mph - N/A   Overcast
7:56 PM 30.2 °F 20.2 °F 24.8 °F 80% 29.99 in 10.0 mi SE 12.7 mph - N/A   Overcast
8:16 PM 30.2 °F 19.8 °F 24.8 °F 80% 29.98 in 10.0 mi SSE 13.8 mph - N/A   Overcast
8:36 PM 30.2 °F 20.2 °F 24.8 °F 80% 29.98 in 10.0 mi SSE 12.7 mph - N/A   Overcast
8:56 PM 30.2 °F 20.2 °F 26.6 °F 86% 29.97 in 10.0 mi SSE 12.7 mph - N/A   Overcast
9:16 PM 30.2 °F 20.2 °F 26.6 °F 86% 29.97 in 10.0 mi SSE 12.7 mph - N/A   Overcast
9:36 PM 30.2 °F 19.8 °F 26.6 °F 86% 29.96 in 10.0 mi SSE 13.8 mph - N/A   Overcast
9:56 PM 30.2 °F 20.8 °F 26.6 °F 86% 29.95 in 10.0 mi SSE 11.5 mph - N/A   Overcast
10:16 PM 30.2 °F 19.8 °F 26.6 °F 86% 29.95 in 10.0 mi SSE 13.8 mph - N/A   Overcast
10:36 PM 30.2 °F 20.2 °F 26.6 °F 86% 29.94 in 10.0 mi SSE 12.7 mph - N/A   Overcast
10:56 PM 30.2 °F 20.2 °F 26.6 °F 86% 29.93 in 10.0 mi SSE 12.7 mph 17.3 mph N/A   Overcast
11:16 PM 30.2 °F 19.8 °F 26.6 °F 86% 29.92 in 10.0 mi SSE 13.8 mph - N/A   Overcast
11:36 PM 30.2 °F 18.9 °F 26.6 °F 86% 29.92 in 10.0 mi SSE 16.1 mph - N/A   Overcast
11:56 PM 30.2 °F 20.8 °F 26.6 °F 86% 29.91 in 10.0 mi SSE 11.5 mph - N/A   Scattered Clouds